Location: Nitra
(0.0000°N, 18.0833°E)
Time: 09:30:49
(UTC+02:00)

Oscar 19 - Visible Passes

Search period start: 10 June 2023 00:00
Search period end: 20 June 2023 00:00
Orbit: 773 x 789 km, 98.8° (Epoch: 09 June)

Date Brightness Start Highest point End Pass type
(mag) Time Alt. Az. Time Alt. Az. Time Alt. Az.
10 Jun 12.5 03:58:54 10° NE 04:02:04 25° E 04:02:04 25° E visible
10 Jun 12.1 05:38:51 10° NW 05:42:11 18° WNW 05:42:36 17° W visible
11 Jun 11.0 05:05:15 10° N 05:09:59 43° WNW 05:09:59 43° WNW visible
12 Jun 10.8 04:32:51 10° NNE 04:37:22 66° NE 04:37:22 66° NE visible
13 Jun 12.5 04:01:27 10° NE 04:04:44 27° E 04:04:44 27° E visible
13 Jun 12.1 05:41:40 10° NW 05:44:49 16° WNW 05:45:16 16° W visible
14 Jun 11.0 05:07:56 10° N 05:12:39 41° WNW 05:12:39 41° WNW visible
15 Jun 10.8 04:35:29 10° NNE 04:40:02 69° NE 04:40:02 69° NE visible
16 Jun 12.4 04:04:00 10° NE 04:07:24 28° E 04:07:24 28° E visible
16 Jun 12.2 05:44:30 10° NW 05:47:26 15° WNW 05:47:56 15° W visible
17 Jun 13.5 03:34:22 10° E 03:34:46 11° E 03:34:46 11° E visible
17 Jun 11.1 05:10:38 10° N 05:15:18 38° WNW 05:15:18 38° WNW visible
18 Jun 10.7 04:38:06 10° NNE 04:42:40 72° NNE 04:42:40 72° NNE visible
19 Jun 12.3 04:06:33 10° NE 04:10:02 30° E 04:10:02 30° E visible
19 Jun 12.3 05:47:22 10° NW 05:50:04 14° WNW 05:50:34 14° W visible
